ダレスト彗星

6P/d'Arrest (2021)

English version
Home page
Updated on March 27, 2022

---------------------------------------------------------------------

・ プロフィール

・ 写真集

・ 軌道要素

Epoch 2022 Jan. 21.0 TT = JDT 2459600.5
T 2021 Sept. 17.76116 TT                                Rudenko
q   1.3545379            (2000.0)            P               Q
n   0.15067345     Peri.  178.08851     +0.73289124     +0.64399352
a   3.4976652      Node   138.93495     -0.62855302     +0.76434190
e   0.6127308      Incl.   19.51219     -0.26036805     -0.03246252
P   6.54
From 3348 observations 1987 Mar. 31-2022 Jan. 31, mean residual 1".0.
     Nongravitational parameters A1 = +0.54, A2 = +0.0991.

・ 星図

・ 光度変化

        m1 = 16.0 + 5 logΔ +  5.0 log r          [   ,-75]  (              〜2021年 7月 4日)
        m1 =  3.5 + 5 logΔ + 45.0 log r(t - 60)  [-75,210]  (2021年 7月 4日〜2022年 4月15日)
        m1 = 16.0 + 5 logΔ +  5.0 log r          [210,   ]  (2022年 4月15日〜              )

---------------------------------------------------------------------

軌道要素はM.P.E.C. 2022-C56に掲載されたものです。
星図はステラナビゲータ Ver.10 (アストロアーツ) で作成したものです。
光度グラフはComet for Windowsで作成したものです。

---------------------------------------------------------------------

Copyright(C) Seiichi Yoshida (comet@aerith.net). All rights reserved.